This is the latest recevied weather packets stored in our database for station/object N8AMF. If no packets are shown the sender has not sent any weather packets the latest 10 day(s).
| Time | Temp. | Humidity | Pressure | Rain* | Wind** | Luminosity | Snow |
|---|---|---|---|---|---|---|---|
| 1778098358 | 11.67° C | 60% | 1011.5 hPa | 0 mm | - | 214 W/m² | - |
| 1778098055 | 12.22° C | 61% | 1011.6 hPa | 0 mm | - | 223 W/m² | - |
| 1778097752 | 12.22° C | 58% | 1011.5 hPa | 0 mm | - | 257 W/m² | - |
| 1778097448 | 12.22° C | 54% | 1011.4 hPa | 0 mm | - | 282 W/m² | - |
| 1778097145 | 12.22° C | 57% | 1011.6 hPa | 0 mm | - | 354 W/m² | - |
| 1778096842 | 12.22° C | 51% | 1011.3 hPa | 0 mm | - | 261 W/m² | - |
| 1778096538 | 12.78° C | 51% | 1011.4 hPa | 0 mm | - | 306 W/m² | - |
| 1778096236 | 12.22° C | 50% | 1011.6 hPa | 0 mm | - | 321 W/m² | - |
| 1778095933 | 12.78° C | 51% | 1011.5 hPa | 0 mm | - | 272 W/m² | - |
| 1778095629 | 12.78° C | 50% | 1011.4 hPa | 0 mm | - | 349 W/m² | - |
| 1778095327 | 13.33° C | 50% | 1011.3 hPa | 0 mm | - | 386 W/m² | - |
| 1778095023 | 13.89° C | 48% | 1011.2 hPa | 0 mm | - | 709 W/m² | - |
| 1778094719 | 13.89° C | 46% | 1011.3 hPa | 0 mm | - | 937 W/m² | - |
| 1778094417 | 13.33° C | 52% | 1011.5 hPa | 0 mm | - | 1214 W/m² | - |
| 1778094113 | 13.33° C | 55% | 1011.5 hPa | 0 mm | - | 546 W/m² | - |
| 1778093810 | 12.78° C | 56% | 1011.6 hPa | 0 mm | - | 501 W/m² | - |
| 1778093506 | 13.33° C | 56% | 1011.5 hPa | 0 mm | - | 508 W/m² | - |
| 1778093204 | 12.78° C | 57% | 1011.7 hPa | 0 mm | - | 498 W/m² | - |
| 1778092901 | 12.78° C | 55% | 1011.6 hPa | 0 mm | - | 658 W/m² | - |
| 1778092598 | 13.33° C | 59% | 1011.7 hPa | 0 mm | - | 1082 W/m² | - |
| 1778092293 | 12.78° C | 62% | 1011.6 hPa | 0 mm | - | 1123 W/m² | - |
| 1778091991 | 12.78° C | 62% | 1011.7 hPa | 0 mm | - | 338 W/m² | - |
| 1778091688 | 12.78° C | 68% | 1011.7 hPa | 0 mm | - | 570 W/m² | - |
| 1778091386 | 12.78° C | 69% | 1011.5 hPa | 0 mm | - | 877 W/m² | - |
| 1778091083 | 12.22° C | 68% | 1011.7 hPa | 0 mm | - | 1063 W/m² | - |
* Rain latest hour (hover to see other rain measurements)
** Current wind speed in m/s (hover to see current wind gust speed)